Flag for U.S.A. Weather past 2 weeks in Hereford, Texas, U.S.A.

Now
45 °F

Sunny.


Feels Like: 40 °F
Forecast: 35 / 39 °F
Wind: 9 mph from Northeast

Location: Clovis Municipal

Current Time: Jan 29, 2015 at 6:38:35 PM

Latest Report: Jan 29, 2015 at 5:55 PM


Visibility: 10 mi

Pressure: 30.47 "Hg

Humidity: 42%

Dew point: 23 °F

Location of HerefordLocation

Historic Weather in Hereford — Graph

°F

Hereford temperature yesterday

Maximum temperature yesterday: 70 °F (at 2:35 PM)
Minimum temperature yesterday: 43 °F (at 2:15 AM)
Average temperature yesterday: 54 °F

Past Weeks' High & Low Weather Summary

 TemperatureHumidityPressure
High70 °F (Jan 27, 3:15 PM)100% (Jan 22, 5:35 AM)30.49 "Hg (Jan 22, 5:35 AM)
Low12 °F (Jan 23, 3:35 AM)16% (Jan 19, 12:55 PM)29.92 "Hg (Jan 17, 3:15 AM)
Average40 °F62%30.19 "Hg
* Reported Jan 14 5:15 PM — Jan 29 5:35 PM, Hereford, Weather by CustomWeather, © 2014

Note: Actual official high and low records may vary slightly from our data, if they occured in-between our weather recording intervals... More about our weather records

Advertising

Hereford weather history for previous 24 hours

 ConditionsComfort  
Time TempWeatherWind HumidityBarometerVisibility
5:35 PM
Jan 29
45 °FSunny.13 mph42%30.46 "Hg10 mi
5:15 PM46 °FSunny.13 mph40%30.45 "Hg10 mi
4:55 PM46 °FPassing clouds.13 mph40%30.45 "Hg10 mi
4:35 PM46 °FPassing clouds.14 mph37%30.46 "Hg10 mi
4:15 PM46 °FSunny.15 mph37%30.46 "Hg10 mi
3:55 PM46 °FSunny.16 mph34%30.46 "Hg10 mi
3:35 PM48 °FSunny.16 mph34%30.46 "Hg10 mi
3:15 PM46 °FSunny.18 mph37%30.46 "Hg10 mi
2:55 PM48 °FPassing clouds.17 mph34%30.46 "Hg10 mi
2:35 PM48 °FScattered clouds.21 mph34%30.45 "Hg10 mi
2:15 PMN/A17 mphN/A30.46 "HgN/A
1:55 PM50 °FPassing clouds.20 mph35%30.45 "HgN/A
1:35 PM48 °FPartly sunny.21 mph37%30.46 "HgN/A
1:15 PM50 °FPartly sunny.22 mph35%30.46 "HgN/A
12:55 PM48 °FSunny.24 mph37%30.47 "HgN/A
12:35 PM50 °FSunny.25 mph35%30.48 "HgN/A
12:15 PM50 °FPassing clouds.23 mph37%30.49 "HgN/A
11:55 AM50 °FSunny.23 mph37%30.49 "HgN/A
11:35 AM48 °FSunny.24 mph43%30.49 "HgN/A
11:15 AM48 °FSunny.23 mph43%30.49 "HgN/A
10:55 AM46 °FSunny.23 mph46%30.48 "HgN/A
10:35 AM46 °FSunny.28 mph50%30.47 "HgN/A
10:15 AM46 °FSunny.26 mph50%30.46 "HgN/A
9:55 AM45 °FSunny.22 mph57%30.44 "HgN/A
9:35 AM45 °FSunny.24 mph61%30.43 "HgN/A
9:15 AM43 °FSunny.24 mph66%30.41 "HgN/A
8:55 AM41 °FSunny.22 mph70%30.41 "HgN/A
8:35 AM39 °FSunny.22 mph75%30.39 "HgN/A
8:15 AM39 °FSunny.21 mph75%30.39 "HgN/A
7:55 AM39 °FSunny.18 mph75%30.39 "HgN/A
7:35 AM39 °FClear.16 mph70%30.37 "HgN/A
7:15 AM39 °FClear.17 mph75%30.36 "HgN/A
6:55 AM39 °FClear.16 mph75%30.34 "HgN/A
6:35 AM39 °FClear.17 mph75%30.33 "HgN/A
6:15 AM39 °FClear.18 mph75%30.32 "HgN/A
5:55 AM39 °FClear.18 mph75%30.31 "HgN/A
5:35 AM39 °FClear.17 mph75%30.31 "HgN/A
5:15 AM41 °FClear.18 mph76%30.30 "HgN/A
4:55 AM41 °FClear.16 mph76%30.28 "HgN/A
4:35 AM41 °FClear.17 mph76%30.27 "HgN/A
4:15 AM41 °FClear.16 mph76%30.25 "HgN/A
3:55 AM43 °FClear.16 mph66%30.25 "HgN/A
3:35 AM43 °FClear.17 mph66%30.24 "HgN/A
3:15 AM43 °FClear.16 mph71%30.23 "HgN/A
2:55 AM45 °FClear.20 mph66%30.23 "HgN/A
2:35 AM43 °FClear.18 mph71%30.22 "HgN/A
2:15 AM39 °FClear.8 mph75%30.19 "HgN/A
1:55 AM39 °FClear.10 mph81%30.18 "HgN/A
1:35 AM39 °FClear.6 mph75%30.17 "HgN/A
1:15 AM37 °FClear.6 mph75%30.18 "HgN/A
12:55 AM37 °FClear.7 mph75%30.18 "HgN/A
12:35 AM39 °FClear.8 mph75%30.18 "HgN/A
11:55 PM
Jan 28
43 °FClear.8 mph71%30.15 "HgN/A
11:35 PM43 °FClear.7 mph66%30.15 "HgN/A
11:15 PM45 °FClear.8 mph61%30.14 "HgN/A
10:55 PM43 °FClear.9 mph66%30.15 "HgN/A
10:35 PM45 °FClear.7 mph66%30.14 "HgN/A
10:15 PM45 °FClear.9 mph61%30.14 "HgN/A
9:55 PM45 °FClear.7 mph57%30.14 "HgN/A
9:35 PM46 °FClear.7 mph57%30.13 "HgN/A
9:15 PM48 °FClear.7 mph50%30.13 "HgN/A
8:55 PM48 °FClear.7 mph50%30.12 "HgN/A
8:35 PM52 °FClear.9 mph44%30.10 "HgN/A
8:15 PM54 °FClear.14 mph44%30.09 "HgN/A
7:55 PM52 °FClear.13 mph47%30.09 "HgN/A
7:35 PM55 °FClear.6 mph38%30.08 "HgN/A
7:15 PM55 °FClear.8 mph41%30.07 "HgN/A
6:55 PM55 °FClear.9 mph41%30.07 "HgN/A
6:35 PM59 °FClear.6 mph34%30.06 "HgN/A
6:15 PM61 °FSunny.3 mph31%30.05 "HgN/A
Weather by CustomWeather, © 2014

See weather overviewHow to use our weather pages